Regional Weather Roundup
Issued by NWS

Current Version | Previous Version | Text Only | Print | Product List | Glossary On
Versions: 1 2 3 4 5 6 7 8 9 10 11 12 13 14 15 16 17 18 19 20 21 22 23 24 25 26 27 28
000
ASUS44 KJAN 280410
RWRMS

MISSISSIPPI HOURLY WEATHER ROUNDUP
NATIONAL WEATHER SERVICE JACKSON MS
1000 PM CST SUN NOV 27 2022

NOTE: "FAIR: INDICATES FEW OR NO CLOUDS BELOW 12,000 FEET WITH NO
SIGNIFICANT WEATHER AND/OR OBSTRUCTIONS TO VISIBILITY.

MSZ001>002-007>008-010>013-018>021-025>028-034>036-280500-
NORTHWEST MISSISSIPPI

CITY           SKY/WX    TMP DP  RH WIND       PRES   REMARKS
BATESVILLE     FOG       45  45 100 CALM      29.94R VSB 1/4
CLARKSDALE     CLOUDY    46  46 100 CALM      29.95R
CLEVELAND      FAIR      49  46  88 W3        29.95R
GREENWOOD      PTCLDY    50  46  86 CALM      29.95R
GREENVILLE     CLEAR     46  43  89 CALM      29.95R
OLIVE BRANCH   MOCLDY    43  43 100 CALM      29.92R
OXFORD         CLEAR     45  45 100 CALM      29.95S
TUNICA         CLEAR     45  45 100 CALM      29.94R FOG
$$

MSZ003>006-009-014>017-022>024-029>033-037>039-280500-
NORTHEAST MISSISSIPPI

CITY           SKY/WX    TMP DP  RH WIND       PRES   REMARKS
ABERDEEN       CLOUDY    54  50  87 CALM      29.95R
COLUMBUS AFB   CLOUDY    54  47  77 W3        29.91R
CORINTH        CLOUDY    50  48  93 CALM      29.92R
GOLDN TRIANGLE CLOUDY    51  48  89 CALM      29.94S
STARKVILLE     CLOUDY    50  48  93 CALM      29.93R
TUPELO         CLEAR     53  45  74 NW5       29.93R
$$

MSZ040-058-280500-
CENTRAL MISSISSIPPI

CITY           SKY/WX    TMP DP  RH WIND       PRES   REMARKS
JACKSON INTL   CLEAR     50  47  89 N7        29.95R
JACKSON HAWKNS CLEAR     52  47  83 N5        29.95R
MERIDIAN KEY   CLEAR     47  46  97 CALM      29.93S
MERIDIAN NAS   CLEAR     49  47  93 CALM      29.94R
PRESTON        CLEAR     47  43  86 NW5       29.96S
RAYMOND        FAIR      50  50 100 CALM      29.96R
VICKSBURG VKS  CLEAR     52  52 100 CALM      29.95S
$$

MSZ059>079-280500-
SOUTH MISSISSIPPI

CITY           SKY/WX    TMP DP  RH WIND       PRES   REMARKS
BROOKHAVEN     FAIR      50  50 100 CALM      29.96R
HATTIESBURG    CLEAR     53  51  93 CALM      29.94R
LAUREL         CLEAR     52 N/A N/A CALM      29.93S
MCCOMB         MOCLDY    52  50  93 NW3       29.95R
NATCHEZ        CLEAR     48  47  96 SE6       29.96R
PINE BELT      CLEAR     50  50 100 CALM      29.94S
$$

MSZ080>082-280500-
COASTAL MISSISSIPPI

CITY           SKY/WX    TMP DP  RH WIND       PRES   REMARKS
BILOXI         CLEAR     62  57  84 W9        29.94R
PASCAGOULA     CLEAR     62  59  90 VRB3      29.96R
GULFPORT       CLEAR     64  57  78 VRB5      29.95R
$$

LAZ007>009-015>016-023>026-280500-
NORTHEAST LOUISIANA

CITY           SKY/WX    TMP DP  RH WIND       PRES   REMARKS
BASTROP        FAIR      46  46  98 CALM      29.96S
TALLULAH/VBURG CLEAR     50  46  86 N3        29.96S
VIDALIA        FAIR      49  49  97 CALM      29.95R
$$



USA.gov is the U.S. government's official web portal to all federal, state and local government web resources and services.